This is the latest recevied weather packets stored in our database for station/object HS1WDC-1. If no packets are shown the sender has not sent any weather packets the latest 10 day(s).
| Time | Temp. | Humidity | Pressure | Rain* | Wind** | Luminosity | Snow |
|---|---|---|---|---|---|---|---|
| 1777998504 | 35° C | 48% | 1008 hPa | - | - | 0 W/m² | - |
| 1777997580 | 35° C | 45% | 1008 hPa | - | - | 0 W/m² | - |
| 1777996655 | 35.56° C | 43% | 1008 hPa | - | - | 0 W/m² | - |
| 1777994807 | 35.56° C | 45% | 1008 hPa | - | - | 0 W/m² | - |
| 1777991109 | 36.67° C | 48% | 1008 hPa | - | - | 0 W/m² | - |
| 1777989261 | 36.67° C | 49% | 1007 hPa | - | - | 0 W/m² | - |
| 1777988336 | 37.22° C | 49% | 1007 hPa | - | - | 0 W/m² | - |
| 1777987412 | 37.22° C | 48% | 1007 hPa | - | - | 0 W/m² | - |
| 1777986488 | 37.78° C | 46% | 1006 hPa | - | - | 0 W/m² | - |
| 1777984639 | 37.78° C | 46% | 1006 hPa | - | - | 0 W/m² | - |
| 1777982790 | 38.33° C | 44% | 1006 hPa | - | - | 0 W/m² | - |
| 1777980942 | 38.89° C | 42% | 1005 hPa | - | - | 0 W/m² | - |
| 1777980018 | 38.89° C | 41% | 1005 hPa | - | - | 0 W/m² | - |
| 1777978168 | 40.56° C | 38% | 1004 hPa | - | - | 0 W/m² | - |
| 1777977244 | 40.56° C | 39% | 1005 hPa | - | - | 0 W/m² | - |
| 1777976320 | 40.56° C | 37% | 1005 hPa | - | - | 0 W/m² | - |
| 1777975396 | 40.56° C | 37% | 1005 hPa | - | - | 0 W/m² | - |
| 1777973547 | 40.56° C | 36% | 1005 hPa | - | - | 0 W/m² | - |
| 1777972623 | 40.56° C | 36% | 1005 hPa | - | - | 0 W/m² | - |
| 1777971673 | 41.11° C | 35% | 1005 hPa | - | - | 0 W/m² | - |
| 1777970748 | 41.11° C | 36% | 1005 hPa | - | - | 0 W/m² | - |
| 1777969824 | 40.56° C | 36% | 1005 hPa | - | - | 0 W/m² | - |
| 1777968899 | 41.11° C | 36% | 1005 hPa | - | - | 0 W/m² | - |
| 1777967975 | 41.11° C | 36% | 1006 hPa | - | - | 0 W/m² | - |
| 1777967051 | 41.11° C | 37% | 1006 hPa | - | - | 0 W/m² | - |
* Rain since midnight (hover to see other rain measurements)
** Current wind speed in m/s (hover to see current wind gust speed)